Weather History for KPSX - April, 2014

Change the Weather History Date:

Sunday, April 20, 2014

  Actual Average Record
Temperature  
Mean Temperature 68 °F -  
Max Temperature 77 °F 78 °F 85 °F (1944)
Min Temperature 60 °F 63 °F 43 °F (2013)
Cooling Degree Days 2    
Growing Degree Days 18 (Base 50)    
Moisture  
Dew Point 62 °F    
Average Humidity 83    
Maximum Humidity 97    
Minimum Humidity 60    
Precipitation  
Precipitation 0.00 in - - ()
Sea Level Pressure  
Sea Level Pressure 30.11 in    
Wind  
Wind Speed 8 mph (SE)    
Max Wind Speed 18 mph    
Max Gust Speed -    
Visibility 7 miles    
Events Fog    
Averages and records for this station are not official NWS values.
T = Trace of Precipitation, MM = Missing Value Source: NWS Daily Summary

Daily Weather History Graph

Daily Weather History Graph

Search for Another Location

Airport or City:

Trip Planner

Search our weather history database for the weather conditions in past years. The results will help you decide how hot, cold, wet, or windy it might be!

Date:

Astronomy

Apr. 20, 2014 Rise Set
Actual Time 6:54 AM CDT 7:53 PM CDT
Civil Twilight 6:29 AM CDT 8:18 PM CDT
Nautical Twilight 6:00 AM CDT 8:47 PM CDT
Astronomical Twilight 5:31 AM CDT 9:17 PM CDT
Moon 12:25 AM CDT (4/20) 11:25 AM CDT (4/20)
Length of Visible Light 13h 48m
Length of Day
12h 59m
Waning Gibbous, 68% of the Moon is Illuminated
Apr 20
Waning Gibbous
Apr 22
Last Quarter
Apr 29
New
May 6
First Quarter
May 14
Full

Hourly Weather History & Observations

Time (CDT) Temp. Dew Point Humidity Pressure Visibility Wind Dir Wind Speed Gust Speed Precip Events Conditions
12:53 AM 64.0 °F 62.1 °F 93% 30.14 in 6.0 mi SE 6.9 mph - N/A   Clear
1:53 AM 64.9 °F 63.0 °F 93% 30.13 in 7.0 mi SE 6.9 mph - N/A   Clear
2:53 AM 63.0 °F 61.0 °F 93% 30.12 in 6.0 mi ESE 4.6 mph - N/A   Clear
3:53 AM 63.0 °F 62.1 °F 97% 30.10 in 4.0 mi ESE 5.8 mph - N/A   Clear
4:53 AM 63.0 °F 62.1 °F 97% 30.09 in 4.0 mi East 6.9 mph - N/A   Clear
5:53 AM 62.1 °F 61.0 °F 96% 30.12 in 4.0 mi Calm Calm - N/A   Clear
6:02 AM 61.0 °F 59.0 °F 93% 30.12 in 1.5 mi Calm Calm - N/A   Clear
6:13 AM 61.0 °F 59.0 °F 93% 30.12 in 0.5 mi ENE 3.5 mph - N/A Fog Fog
6:24 AM 60.1 °F 59.0 °F 96% 30.12 in 0.2 mi ENE 4.6 mph - N/A Fog Fog
6:48 AM 62.6 °F 60.8 °F 94% 30.12 in 1.0 mi East 5.8 mph - N/A   Mist
6:53 AM 62.1 °F 61.0 °F 96% 30.12 in 1.8 mi East 5.8 mph - N/A   Partly Cloudy
7:01 AM 62.1 °F 61.0 °F 96% 30.13 in 3.0 mi East 4.6 mph - N/A   Clear
7:53 AM 66.0 °F 64.0 °F 93% 30.14 in 8.0 mi East 6.9 mph - N/A   Clear
9:53 AM 72.0 °F 62.1 °F 71% 30.16 in 10.0 mi SE 11.5 mph - N/A   Clear
10:53 AM 73.0 °F 61.0 °F 66% 30.17 in 10.0 mi SE 13.8 mph - N/A   Overcast
11:53 AM 75.0 °F 60.1 °F 60% 30.17 in 10.0 mi SE 13.8 mph - N/A   Overcast
12:53 PM 75.0 °F 61.0 °F 62% 30.15 in 10.0 mi SE 13.8 mph - N/A   Overcast
2:53 PM 75.9 °F 61.0 °F 60% 30.12 in 10.0 mi SE 17.3 mph - N/A   Scattered Clouds
3:53 PM 75.9 °F 62.1 °F 62% 30.10 in 10.0 mi SSE 17.3 mph - N/A   Clear
4:53 PM 75.0 °F 62.1 °F 64% 30.08 in 10.0 mi SE 18.4 mph - N/A   Clear
5:53 PM 73.9 °F 63.0 °F 68% 30.07 in 10.0 mi SE 16.1 mph - N/A   Clear
6:53 PM 72.0 °F 63.0 °F 73% 30.06 in 10.0 mi SSE 13.8 mph - N/A   Partly Cloudy
7:53 PM 69.1 °F 63.0 °F 81% 30.07 in 10.0 mi SSE 9.2 mph - N/A   Clear
8:53 PM 66.9 °F 64.0 °F 90% 30.08 in 10.0 mi SE 8.1 mph - N/A   Clear
9:53 PM 66.9 °F 63.0 °F 87% 30.09 in 10.0 mi SSE 8.1 mph - N/A   Clear
10:53 PM 68.0 °F 64.0 °F 87% 30.09 in 10.0 mi SSE 8.1 mph - N/A   Clear
11:53 PM 68.0 °F 63.0 °F 84% 30.10 in 10.0 mi SSE 9.2 mph - N/A   Clear